Regional Weather Roundup
Issued by NWS

Home | Current Version | Previous Version | Text Only | Print | Product List | Glossary On
Versions: 1 2 3 4 5 6 7 8 9 10 11 12 13 14 15 16 17 18 19 20 21 22 23 24 25 26 27 28 29 30 31 32 33 34 35 36 37 38 39 40 41 42 43 44 45 46 47 48 49 50
010
ASUS45 KCYS 231510
RWRWY

WYOMING REGIONAL WEATHER ROUNDUP
NATIONAL WEATHER SERVICE CHEYENNE WY
900 AM MDT SAT JUL 23 2016

NOTE:  "FAIR" INDICATES FEW OR NO CLOUDS BELOW 12,000 FEET
WITH NO SIGNIFICANT WEATHER AND/OR OBSTRUCTIONS TO VISIBILITY.

WYZ001-231600-
YELLOWSTONE NATIONAL PARK

CITY           SKY/WX    TMP DP  RH WIND       PRES   REMARKS
LK YELLOWSTONE   N/A     57  37  47 CALM      30.33S
W YELLOWSTONE  NOT AVBL

$$
WYZ002>013-054>058-071-098>099-231600-
NORTHERN WYOMING

CITY           SKY/WX    TMP DP  RH WIND       PRES   REMARKS
JACKSON        SUNNY     61  28  29 CALM      30.27
CODY           FAIR      66  43  42 CALM      30.13S
GREYBULL       FAIR      77  41  27 NW9       30.04R
WORLAND        FAIR      73  42  32 NW7       30.08R
SHERIDAN       FAIR      75  41  29 N7        30.05F
BUFFALO        FAIR      71  40  32 N17       30.11R
GILLETTE       FAIR      71  42  35 NW17      30.06R
HULETT         FAIR      72  43  35 NW8G20    30.05R
NEWCASTLE      FAIR      73  48  40 NW22G28   30.00R

$$
WYZ014>020-022>026-101>103-231600-
CENTRAL WYOMING

CITY           SKY/WX    TMP DP  RH WIND       PRES   REMARKS
BIG PINEY      FAIR      64  24  21 VRB3      30.31S
PINEDALE       FAIR      59  39  47 CALM      30.32S
DUBOIS         FAIR      66  18  15 N13       30.24S
LANDER         FAIR      73  26  17 NE9       30.14R
RIVERTON       FAIR      73  39  29 NE8       30.14S
CASPER         FAIR      71  42  35 NE9       30.16R
DOUGLAS          N/A    N/A N/A N/A MISG      30.12R

$$
WYZ021-027>030-104>119-231600-
SOUTHERN WYOMING

CITY           SKY/WX    TMP DP  RH WIND       PRES   REMARKS
EVANSTON       FAIR      67  34  29 CALM      30.34R
KEMMERER         N/A     66  30  26 CALM      30.34R
FORT BRIDGER   FAIR      70  26  19 NW8       30.35R
ROCK SPRINGS   FAIR      69  34  27 W8        30.28S
DIXON          FAIR      68  47  47 SE5       30.31S
RAWLINS        FAIR      73  33  23 W21       30.26R
SARATOGA       FAIR      73  43  33 CALM      30.30R
LARAMIE        FAIR      75  41  29 SW18G24   30.26S
CHEYENNE       FAIR      81  41  24 NW16      30.15S
TORRINGTON     FAIR      82  51  34 NW12      29.99R
PINE BLUFFS    FAIR      82  45  26 W14       30.07F

$$




USA.gov is the U.S. government's official web portal to all federal, state and local government web resources and services.